Overview Statistics Trail Chart Weather Telemetry Raw packets
 

This is the latest recevied weather packets stored in our database for station/object KQ4WWD. If no packets are shown the sender has not sent any weather packets the latest 10 day(s).

<< 59 60 61 62 63 64 65 >>
Time Temp. Humidity Pressure Rain* Wind** Luminosity Snow
1788202465 34.44° C 61% 1015.5 hPa 0 mm - 672 W/m² -
1788202165 33.89° C 64% 1015.3 hPa 0 mm - 659 W/m² -
1788201865 33.89° C 61% 1015.7 hPa 0 mm - 677 W/m² -
1788201561 34.44° C 63% 1015.5 hPa 0 mm - 714 W/m² -
1788201260 33.33° C 64% 1015.9 hPa 0 mm - 733 W/m² -
1788200960 33.89° C 63% 1015.9 hPa 0 mm - 339 W/m² -
1788200655 33.89° C 62% 1015.9 hPa 0 mm - 748 W/m² -
1788200350 33.33° C 64% 1015.9 hPa 0 mm - 763 W/m² -
1788200046 33.33° C 65% 1015.9 hPa 0 mm - 721 W/m² -
1788199740 33.33° C 64% 1016.2 hPa 0 mm - 741 W/m² -
1788199440 33.89° C 65% 1016.1 hPa 0 mm - 721 W/m² -
1788199139 33.33° C 64% 1016.5 hPa 0 mm - 720 W/m² -
1788198836 33.33° C 64% 1016.3 hPa 0 mm - 729 W/m² -
1788198532 32.78° C 66% 1016.6 hPa 0 mm - 725 W/m² -
1788198227 33.33° C 65% 1016.5 hPa 0 mm - 684 W/m² -
1788197925 33.33° C 65% 1016.6 hPa 0 mm - 687 W/m² -
1788197620 33.33° C 64% 1016.7 hPa 0 mm - 696 W/m² -
1788197315 33.33° C 62% 1016.8 hPa 0 mm - 709 W/m² -
1788197011 33.33° C 63% 1016.9 hPa 0 mm - 706 W/m² -
1788196710 32.78° C 63% 1016.9 hPa 0 mm - 687 W/m² -
1788196407 32.78° C 65% 1017.1 hPa 0 mm - 684 W/m² -
1788196104 33.33° C 63% 1017.2 hPa 0 mm - 689 W/m² -
1788195800 32.78° C 64% 1017.5 hPa 0 mm - 637 W/m² -
1788195496 32.78° C 65% 1017.6 hPa 0 mm - 695 W/m² -
1788195192 32.22° C 65% 1017.6 hPa 0 mm - 692 W/m² -

* Rain latest hour (hover to see other rain measurements)
** Current wind speed in m/s (hover to see current wind gust speed)